Find TSAT-1A

NORAD ID: 59442 Int'l Des: 2024-066 Owner: TASL Country: IN operational
LEOCIRCULAR

Live Position

Loading 3D Globe...

About TSAT-1A

Description loading...

Upcoming Passes

Passes for default location (London). Set your location on the main map for personalized predictions.

Altitude History

Loading altitude history...

Two-Line Element Set

1 59442U 24066A 26107.31853628 .00007333 00000-0 22580-3 0 9990
2 59442 45.6151 92.9135 0009799 122.9296 237.2543 15.34309617112427
Epoch: Apr 17, 2026 • Age: 10 hours

Current Status

Altitude 457.0 km
Velocity 7.65 km/s
Sub-Earth Point 28.37°N, 128.75°E
Launch Date Apr 7, 2024
Age 2 years
Type other

Technical Details

Classification Payload
Mass 42.00 kg
Dry Mass 38.00 kg
Total Mass 42.00 kg
Length 0.80 m
Diameter 0.50 m
Span 0.80 m
Shape Box
Manufacturer URUGUS
Bus Type Newsat V
Phase Status In Orbit
Owner/State TASL/IN

Most Searched